Flag for Netherlands Weather past 2 weeks in Zaandam, Netherlands

Now
57 °F

Partly cloudy.


Feels Like: 53 °F
Forecast: 46 / 68 °F
Wind: 21 mph from Southwest

Location: Amsterdam Schiphol Airport

Current Time: Jun 3, 2015 at 3:43:55 AM

Latest Report: Jun 3, 2015 at 2:55 AM


Visibility: N/A

Pressure: 29.89 "Hg

Humidity: 77%

Dew point: 50 °F

Location of ZaandamLocation

Historic Weather in Zaandam — Graph

°F

Zaandam temperature yesterday

Maximum temperature yesterday: 63 °F (at 8:55 PM)
Minimum temperature yesterday: 52 °F (at 7:25 AM)
Average temperature yesterday: 58 °F

Past Weeks' High & Low Weather Summary

 TemperatureHumidityPressure
High66 °F (May 22, 1:55 PM)100% (May 23, 9:25 AM)30.33 "Hg (May 23, 9:25 AM)
Low41 °F (May 24, 2:25 AM)30% (May 24, 5:25 PM)29.56 "Hg (May 19, 4:25 AM)
Average54 °F74%29.98 "Hg
* Reported May 19 1:25 AM — Jun 3 1:55 AM, Zaandam, Weather by CustomWeather, © 2015

Note: Actual official high and low records may vary slightly from our data, if they occured in-between our weather recording intervals... More about our weather records

Advertising

Zaandam weather history for previous 24 hours

 ConditionsComfort  
Time TempWeatherWind HumidityBarometerVisibility
1:55 AM
Wed, Jun 3
57 °FPassing clouds.21 mph77%29.89 "HgN/A
1:25 AM57 °FPassing clouds.20 mph77%29.86 "HgN/A
12:55 AM59 °FPassing clouds.20 mph72%29.86 "HgN/A
12:25 AM59 °FPassing clouds.24 mph72%29.86 "HgN/A
11:55 PM
Tue, Jun 2
61 °FPassing clouds.28 mph68%29.83 "HgN/A
11:25 PM61 °FPassing clouds.28 mph68%29.83 "HgN/A
10:55 PM61 °FPassing clouds.28 mph72%29.83 "HgN/A
10:25 PM61 °FPassing clouds.30 mph83%29.80 "HgN/A
9:55 PM61 °FBroken clouds.30 mph88%29.80 "HgN/A
9:25 PM63 °FBroken clouds.31 mph83%29.80 "HgN/A
8:55 PM63 °FBroken clouds.33 mph83%29.80 "HgN/A
8:25 PM61 °FBroken clouds.26 mph88%29.80 "HgN/A
7:55 PM61 °FBroken clouds.30 mph88%29.80 "HgN/A
7:25 PM61 °FBroken clouds.26 mph88%29.77 "HgN/A
6:55 PM61 °FDrizzle. Broken clouds.23 mph88%29.77 "HgN/A
6:25 PM61 °FBroken clouds.24 mph88%29.77 "HgN/A
5:55 PM61 °FDrizzle. Broken clouds.23 mph94%29.77 "Hg5 mi
5:25 PM59 °FDrizzle. Broken clouds.20 mph100%29.77 "Hg4 mi
4:55 PM59 °FDrizzle. Broken clouds.22 mph94%29.77 "Hg3 mi
4:25 PM61 °FDrizzle. Broken clouds.25 mph88%29.74 "Hg4 mi
3:55 PM61 °FDrizzle. Broken clouds.24 mph83%29.74 "HgN/A
3:25 PM61 °FDrizzle. Broken clouds.30 mph83%29.74 "HgN/A
2:55 PM61 °FMostly cloudy.30 mph83%29.74 "HgN/A
2:25 PM61 °FMostly cloudy.29 mph77%29.71 "HgN/A
1:55 PM61 °FMostly cloudy.24 mph77%29.71 "HgN/A
1:25 PM59 °FOvercast.25 mph82%29.71 "HgN/A
12:55 PM59 °FOvercast.25 mph82%29.71 "HgN/A
12:25 PM59 °FMostly cloudy.25 mph77%29.71 "HgN/A
11:55 AM57 °FMostly cloudy.28 mph82%29.71 "HgN/A
11:25 AM57 °FMostly cloudy.24 mph82%29.71 "HgN/A
10:55 AM55 °FPartly sunny.26 mph88%29.71 "HgN/A
10:25 AM55 °FPartly sunny.25 mph88%29.68 "HgN/A
9:55 AM55 °FPartly sunny.24 mph88%29.68 "HgN/A
9:25 AM54 °FDrizzle. Broken clouds.25 mph88%29.68 "HgN/A
8:55 AM52 °FDrizzle. Partly sunny.23 mph94%29.68 "HgN/A
8:25 AM52 °FDrizzle. Partly sunny.23 mph94%29.68 "Hg5 mi
7:55 AM52 °FDrizzle. Partly sunny.23 mph94%29.68 "Hg6 mi
7:25 AM52 °FLight rain. Broken clouds.21 mph94%29.68 "Hg6 mi
6:55 AM55 °FLight rain. Broken clouds.21 mph72%29.68 "HgN/A
5:25 AM55 °FPassing clouds.21 mph67%29.68 "HgN/A
4:55 AM55 °FPassing clouds.21 mph67%29.71 "HgN/A
4:25 AM55 °FPassing clouds.21 mph67%29.71 "HgN/A
3:55 AM55 °FClear.18 mph67%29.74 "Hg10 mi
3:25 AM54 °FPassing clouds.16 mph72%29.74 "HgN/A
Weather by CustomWeather, © 2015

See weather overviewHow to use our weather pages